Wind_Speed
47 44 43 42 43 43 43 43 42 38 36 38 42 43 45 46 46 45 44 41 34 31 33 37 42 48 54 60 62 61 59 57 57 54 45 38 36 36 37 39 42 45 48 50
56 52 50 48 47 47 48 49 48 46 43 44 45 45 45 45 43 41 38 33 30 31 35 40 46 52 58 60 59 57 56 55 52 44 38 36 37 38 40 42 46 49 51 52
63 62 60 57 53 53 54 54 55 54 51 48 47 45 46 47 46 44 38 31 30 34 39 45 50 54 56 55 55 53 53 50 43 38 37 37 39 41 43 46 48 50 52 51
59 61 64 62 61 61 60 60 59 58 57 54 53 50 51 49 45 43 37 34 40 42 44 47 50 52 52 51 50 50 49 43 38 36 37 39 41 44 47 49 51 52 51 50
53 56 58 57 57 56 56 59 61 61 61 61 58 57 55 54 49 43 42 43 43 44 46 47 48 48 48 47 46 46 41 36 35 37 39 41 43 46 48 50 51 51 50 50
49 52 54 52 50 48 48 50 52 54 56 58 59 59 55 49 44 42 43 43 43 44 45 45 45 45 43 43 43 39 34 33 35 37 40 42 45 47 49 50 51 51 51 48
44 47 47 46 45 42 42 41 37 36 38 40 42 40 39 39 40 40 41 41 40 40 40 41 41 39 40 41 37 32 31 33 35 38 41 43 45 47 48 50 52 51 48 44
38 40 41 41 40 38 36 35 34 34 32 29 29 30 32 34 36 37 36 35 34 34 35 35 35 37 38 34 30 29 30 33 36 39 41 43 44 46 48 50 50 47 44 42
31 34 35 37 38 37 35 34 33 32 29 26 26 26 26 27 29 29 29 30 31 32 32 32 34 34 30 26 25 28 31 34 37 39 41 43 43 45 47 47 46 43 42 39
26 27 28 29 31 32 32 29 27 22 19 19 18 19 21 23 24 25 27 29 31 31 30 31 30 26 22 22 25 28 31 35 37 39 41 42 42 43 44 43 42 41 38 32
18 16 17 18 21 23 24 21 15 9 8 11 14 17 19 20 22 25 27 28 28 26 27 26 22 18 19 21 25 28 32 34 37 39 41 41 40 42 42 41 40 37 32 26
13 11 12 11 12 13 11 10 7 8 11 14 16 18 18 20 22 24 24 23 23 23 22 18 14 15 18 21 25 29 32 34 37 39 41 40 40 41 41 39 37 33 29 24
11 18 18 13 10 8 6 6 7 9 11 12 15 17 19 20 21 21 20 20 21 19 14 10 11 14 18 22 26 29 32 35 37 39 40 39 39 40 39 36 35 32 28 22
20 22 20 15 10 8 8 9 8 7 7 9 12 15 17 17 18 18 19 18 15 9 6 7 9 14 19 24 27 30 33 35 37 38 38 38 38 38 37 35 34 31 27 21
19 17 13 11 12 13 13 13 13 11 11 12 13 15 15 15 16 17 14 9 4 3 3 5 9 15 21 24 28 30 32 34 35 36 36 37 37 36 35 34 32 30 26 21
17 13 10 9 9 11 13 15 15 14 12 13 13 13 14 15 14 10 3 4 4 1 2 7 12 17 22 25 27 29 32 34 34 34 35 35 34 35 34 32 30 28 23 20
14 12 10 9 9 9 11 12 13 12 12 12 11 11 11 10 3 5 8 8 5 3 5 9 15 19 22 25 27 30 31 32 33 32 33 33 33 34 33 31 29 27 24 20
14 13 12 11 9 8 9 10 12 12 11 10 9 8 6 2 8 10 9 8 5 4 7 13 17 21 23 25 27 29 30 31 31 31 32 33 33 33 32 30 28 27 26 24
14 14 14 12 11 9 10 11 13 12 11 9 7 5 3 9 11 11 10 8 5 5 10 14 18 21 24 26 28 29 29 30 31 32 33 33 33 32 30 29 27 26 26 25
16 16 16 15 13 10 11 13 14 12 10 7 5 4 9 13 13 12 10 7 5 7 11 16 20 22 25 28 29 30 30 31 32 33 34 33 31 29 28 27 27 26 26 25
17 17 17 16 13 13 14 15 14 11 9 6 5 7 12 14 13 12 10 7 6 8 13 17 20 24 27 29 29 30 31 33 34 36 35 33 30 27 25 25 26 27 27 26
17 16 16 15 16 17 17 16 14 11 9 7 6 10 15 16 14 13 10 7 6 9 13 17 21 24 27 29 30 31 33 35 37 37 35 32 29 26 24 23 24 25 27 28
17 16 16 18 20 20 19 16 13 11 10 8 8 12 17 17 15 13 10 7 7 10 13 17 21 24 27 29 30 33 35 38 39 38 34 31 28 26 24 22 22 24 25 27
19 20 21 22 21 20 17 15 13 12 10 8 9 14 18 18 16 14 11 8 6 9 13 17 20 23 25 28 31 34 38 40 40 38 35 32 29 26 25 24 23 23 24 25
20 22 23 22 20 18 16 15 13 11 9 8 10 15 19 19 17 15 12 8 7 9 13 16 19 21 25 29 32 35 38 41 41 39 37 34 31 28 26 26 25 25 25 25
20 22 22 22 20 18 16 14 12 10 8 8 11 16 21 21 19 16 12 9 8 9 13 17 19 20 24 28 32 35 38 41 42 41 39 37 35 32 29 28 28 28 27 27
20 21 22 22 21 18 16 14 12 10 8 9 13 19 23 23 21 17 13 10 8 9 12 15 16 18 22 27 31 35 37 39 41 41 41 40 38 36 33 31 31 30 30 30
Wind_Direction
250 246 239 236 237 240 244 249 254 256 254 258 264 264 265 268 270 272 272 271 275 288 299 305 308 311 312 311 309 309 311 312 312 312 310 306 305 305 306 307 309 311 312 313
248 249 248 246 244 245 246 250 254 256 256 260 263 267 270 272 274 278 275 275 284 297 306 307 308 309 310 310 310 311 313 313 312 310 309 308 308 308 308 310 312 314 314 314
246 247 249 250 251 251 252 254 256 258 258 258 265 273 278 277 277 275 272 282 300 312 310 308 309 309 309 310 312 313 313 312 310 308 309 310 310 311 312 314 315 315 315 315
247 247 248 249 249 250 252 254 257 259 260 261 266 274 279 279 278 273 275 293 311 314 309 308 307 308 309 311 313 313 312 310 308 308 311 313 314 314 316 317 317 317 317 317
248 249 250 250 251 252 251 252 253 255 257 259 263 269 274 277 278 278 288 303 311 310 306 305 305 307 310 312 312 311 310 308 308 311 314 315 316 318 319 320 320 320 320 318
252 253 255 255 254 254 255 255 254 256 257 259 262 266 270 272 274 282 294 303 305 303 302 303 305 308 311 312 311 309 307 308 311 313 315 317 320 322 323 324 323 323 323 322
252 254 256 257 257 254 252 253 254 256 260 263 263 261 261 266 275 286 294 298 299 299 301 304 307 310 310 309 307 306 306 309 313 315 319 322 324 326 326 326 327 327 327 326
255 257 257 255 253 251 249 248 249 256 259 253 247 248 256 267 279 287 290 292 296 300 304 307 308 308 307 306 304 305 309 313 316 320 324 327 328 329 330 330 331 331 330 328
262 263 262 255 248 247 246 246 247 247 243 242 245 250 260 271 278 281 286 290 295 301 306 307 306 306 305 302 303 309 314 317 321 326 329 332 332 332 332 333 333 332 330 329
271 268 260 249 241 241 244 247 245 238 243 254 255 257 262 267 271 279 288 294 298 301 301 303 305 305 301 303 309 315 319 322 327 331 334 335 334 334 334 335 335 335 335 335
271 262 248 235 233 234 237 245 255 263 269 269 261 261 264 267 276 286 292 295 297 296 299 304 306 301 302 309 317 321 324 328 332 336 337 336 335 336 337 337 339 341 342 342
260 227 215 214 212 216 229 244 252 280 287 280 269 266 268 273 281 286 290 292 294 298 303 306 302 303 311 320 323 326 330 334 337 339 339 338 338 339 341 342 344 346 346 345
201 185 181 185 189 203 236 261 275 279 278 271 263 261 265 272 280 285 288 292 298 303 304 300 302 315 323 325 328 333 337 338 341 342 342 342 342 344 346 347 349 351 350 348
157 167 176 181 191 223 254 266 256 247 250 253 255 261 269 278 284 288 292 297 300 298 289 297 318 327 328 330 336 341 341 342 344 345 346 346 347 349 352 354 355 356 358 2
156 160 165 178 204 224 238 239 234 237 251 262 267 273 279 284 289 292 294 293 269 242 282 320 336 334 334 340 343 344 345 347 349 350 351 351 353 355 358 360 1 3 7 17
162 163 168 172 188 210 223 232 241 252 261 267 271 274 281 289 293 293 263 164 155 149 351 349 345 343 345 346 348 350 351 352 354 354 355 356 359 1 3 5 8 11 16 24
183 188 191 195 197 206 219 231 239 245 249 254 258 271 287 296 282 147 142 139 130 90 17 359 354 354 353 353 356 357 356 355 356 357 359 2 4 5 7 9 13 18 23 27
205 207 206 206 202 205 214 221 229 231 230 234 253 279 294 187 147 145 141 134 116 60 17 5 4 1 358 0 2 1 359 357 358 1 3 6 7 9 10 13 17 21 26 29
216 218 219 223 226 227 221 218 218 213 212 229 256 275 192 160 157 150 142 130 99 44 17 14 11 5 5 7 6 5 3 1 1 3 4 5 8 11 13 17 21 25 29 32
219 221 223 227 230 221 208 201 198 197 206 228 243 214 171 165 158 150 141 127 91 38 23 22 14 10 11 11 8 7 7 6 5 4 4 4 6 12 16 21 26 30 32 34
221 222 222 222 212 195 190 186 187 195 206 218 213 179 168 162 154 150 143 125 79 37 30 25 15 12 13 12 11 10 9 9 7 5 5 6 9 14 20 25 31 34 36 36
217 218 214 202 189 182 182 184 189 195 199 197 185 170 166 161 156 153 143 117 70 41 36 26 16 13 14 14 13 13 12 11 9 8 9 11 14 19 25 30 34 38 40 39
204 198 186 175 175 180 181 183 188 192 192 186 175 168 166 164 161 155 143 117 75 49 38 25 17 16 17 17 16 16 15 14 12 12 14 17 20 24 29 34 37 40 42 41
194 189 183 181 181 181 181 183 189 191 190 182 170 166 166 166 162 154 143 122 82 56 40 26 20 20 21 21 21 20 19 18 17 18 21 24 26 30 34 38 41 43 44 43
191 190 187 186 186 185 185 187 191 193 191 180 169 167 168 166 162 156 144 124 90 62 40 28 24 26 27 27 26 25 23 23 24 26 28 30 33 36 39 42 44 46 46 46
189 185 185 188 189 189 189 189 191 195 192 181 170 169 168 165 163 158 146 126 98 66 42 32 31 32 33 32 32 31 30 29 30 32 34 36 39 42 45 47 48 49 49 48
189 186 187 189 190 191 193 194 195 196 191 179 172 171 168 165 164 159 147 129 103 68 45 39 41 42 42 40 39 37 36 36 36 37 39 42 44 46 49 51 51 51 51 51
Height
5753 5756 5758 5760 5762 5763 5763 5762 5763 5764 5764 5766 5766 5766 5767 5767 5766 5764 5761 5757 5753 5750 5748 5745 5742 5738 5733 5727 5720 5713 5705 5696 5688 5680 5672 5665 5658 5652 5647 5640 5633 5626 5618 5609
5742 5745 5747 5750 5754 5755 5755 5755 5755 5756 5758 5759 5758 5757 5758 5757 5756 5755 5750 5745 5743 5741 5739 5737 5734 5729 5723 5716 5709 5701 5694 5686 5678 5670 5664 5657 5651 5645 5639 5631 5623 5615 5606 5596
5728 5731 5734 5738 5744 5744 5745 5746 5747 5748 5751 5751 5750 5749 5749 5748 5748 5745 5740 5736 5735 5733 5731 5728 5723 5718 5711 5705 5698 5690 5683 5676 5669 5663 5657 5650 5644 5637 5629 5621 5613 5603 5594 5584
5712 5718 5719 5726 5727 5730 5732 5734 5736 5738 5740 5742 5742 5742 5740 5740 5738 5734 5730 5728 5727 5724 5721 5717 5713 5708 5701 5695 5688 5681 5675 5668 5662 5656 5649 5642 5635 5628 5619 5610 5601 5591 5582 5572
5700 5701 5704 5711 5713 5716 5719 5720 5723 5727 5729 5731 5732 5732 5731 5731 5729 5726 5722 5720 5718 5716 5712 5708 5704 5699 5692 5685 5679 5673 5667 5661 5656 5649 5642 5635 5627 5618 5609 5600 5590 5580 5570 5560
5687 5688 5691 5698 5700 5703 5706 5707 5712 5715 5718 5720 5722 5723 5723 5721 5718 5716 5714 5712 5711 5708 5705 5701 5696 5690 5683 5677 5672 5667 5661 5656 5650 5643 5636 5627 5618 5609 5599 5589 5579 5569 5558 5548
5675 5676 5680 5685 5687 5691 5696 5699 5702 5705 5706 5708 5710 5711 5711 5710 5710 5708 5707 5706 5704 5701 5697 5692 5687 5681 5677 5672 5667 5662 5656 5650 5644 5637 5629 5620 5610 5600 5590 5580 5569 5558 5548 5538
5665 5666 5671 5674 5676 5681 5686 5690 5692 5695 5696 5698 5699 5699 5702 5702 5702 5702 5701 5699 5697 5694 5689 5684 5680 5676 5672 5667 5662 5657 5651 5645 5638 5630 5621 5612 5602 5592 5582 5571 5560 5550 5540 5531
5656 5658 5659 5662 5666 5672 5678 5683 5686 5688 5690 5692 5692 5693 5694 5696 5697 5696 5695 5693 5690 5687 5682 5678 5675 5671 5666 5662 5657 5652 5646 5639 5632 5624 5614 5605 5596 5586 5575 5565 5554 5544 5535 5526
5645 5646 5647 5650 5656 5663 5670 5676 5679 5681 5683 5686 5687 5688 5689 5691 5691 5690 5688 5686 5683 5680 5676 5673 5669 5665 5662 5658 5653 5647 5641 5634 5626 5617 5609 5600 5590 5580 5571 5560 5550 5539 5529 5521
5637 5638 5639 5643 5651 5658 5664 5670 5673 5675 5677 5679 5681 5682 5684 5684 5684 5682 5681 5679 5677 5674 5671 5667 5664 5661 5658 5654 5649 5643 5637 5629 5620 5612 5604 5595 5585 5576 5566 5556 5545 5535 5526 5518
5632 5634 5637 5643 5649 5655 5661 5665 5667 5669 5671 5673 5675 5677 5678 5678 5678 5677 5676 5675 5672 5669 5666 5663 5661 5659 5655 5651 5646 5639 5632 5624 5616 5608 5599 5590 5581 5571 5561 5551 5541 5531 5523 5516
5626 5631 5638 5644 5649 5654 5658 5661 5663 5665 5667 5668 5670 5672 5674 5674 5674 5673 5671 5669 5666 5664 5662 5661 5659 5656 5652 5648 5643 5636 5628 5620 5612 5604 5594 5586 5577 5567 5557 5547 5537 5528 5520 5514
5630 5634 5639 5645 5649 5653 5656 5658 5661 5663 5665 5666 5668 5670 5670 5669 5668 5667 5666 5663 5661 5661 5661 5660 5658 5655 5651 5645 5639 5632 5625 5617 5609 5600 5591 5583 5574 5564 5555 5545 5535 5527 5519 5513
5635 5639 5643 5646 5649 5652 5655 5658 5660 5662 5663 5664 5665 5666 5666 5665 5664 5663 5661 5659 5660 5661 5661 5660 5657 5654 5649 5643 5637 5630 5622 5614 5607 5598 5590 5581 5572 5563 5553 5544 5535 5527 5520 5515
5637 5640 5643 5646 5649 5651 5654 5657 5658 5659 5660 5661 5662 5662 5663 5662 5660 5658 5658 5659 5661 5662 5661 5659 5657 5653 5647 5641 5635 5628 5620 5613 5605 5597 5589 5580 5571 5562 5554 5545 5537 5529 5523 5518
5637 5640 5643 5647 5649 5652 5654 5655 5656 5657 5658 5660 5661 5661 5660 5659 5658 5657 5659 5661 5662 5662 5661 5659 5656 5652 5646 5640 5634 5627 5620 5612 5605 5598 5589 5581 5572 5564 5555 5547 5539 5532 5526 5521
5637 5640 5643 5645 5648 5651 5652 5653 5654 5655 5657 5658 5659 5659 5658 5658 5658 5660 5662 5663 5663 5662 5661 5659 5655 5651 5646 5640 5634 5627 5620 5613 5606 5598 5590 5582 5573 5565 5557 5549 5542 5536 5530 5524
5635 5638 5641 5643 5645 5647 5649 5651 5652 5654 5656 5657 5657 5657 5658 5659 5660 5662 5663 5664 5664 5663 5662 5659 5656 5651 5646 5640 5634 5628 5621 5613 5605 5598 5590 5582 5574 5567 5559 5552 5546 5540 5534 5529
5632 5634 5637 5639 5642 5644 5647 5649 5651 5654 5655 5656 5656 5657 5658 5660 5662 5663 5664 5665 5665 5665 5663 5660 5657 5652 5647 5641 5635 5628 5622 5614 5606 5598 5590 5582 5575 5568 5562 5556 5550 5544 5538 5533
5628 5630 5633 5636 5639 5642 5645 5648 5650 5653 5654 5655 5656 5657 5659 5661 5663 5665 5666 5666 5667 5666 5664 5661 5658 5654 5649 5642 5636 5629 5623 5615 5607 5598 5589 5582 5575 5569 5564 5559 5554 5548 5543 5538
5624 5627 5629 5633 5637 5641 5644 5647 5650 5652 5653 5655 5656 5657 5659 5662 5664 5666 5668 5669 5669 5667 5665 5663 5660 5656 5650 5644 5638 5632 5624 5616 5607 5598 5590 5582 5576 5571 5566 5562 5558 5553 5548 5543
5621 5624 5626 5630 5634 5638 5642 5646 5649 5651 5653 5655 5656 5657 5660 5663 5665 5668 5670 5671 5671 5669 5668 5666 5662 5658 5653 5647 5641 5634 5626 5618 5609 5600 5592 5584 5578 5573 5569 5565 5561 5557 5553 5549
5618 5622 5625 5629 5633 5638 5642 5645 5648 5651 5652 5654 5656 5657 5660 5664 5667 5669 5671 5673 5673 5672 5670 5668 5665 5661 5656 5651 5644 5637 5629 5621 5612 5603 5594 5587 5581 5577 5573 5569 5565 5562 5558 5554
5617 5621 5625 5629 5633 5637 5641 5645 5648 5650 5651 5653 5655 5658 5661 5664 5668 5671 5673 5674 5675 5674 5673 5671 5668 5664 5660 5654 5648 5641 5634 5625 5617 5608 5600 5593 5586 5581 5577 5574 5570 5567 5563 5560
5616 5620 5625 5628 5632 5636 5640 5643 5646 5648 5650 5653 5655 5658 5661 5666 5670 5673 5675 5676 5677 5676 5675 5673 5670 5667 5663 5659 5653 5647 5640 5632 5624 5615 5607 5600 5594 5588 5584 5580 5577 5573 5570 5566
5615 5619 5623 5627 5631 5635 5638 5641 5644 5646 5649 5652 5655 5658 5662 5667 5671 5675 5677 5678 5679 5679 5678 5676 5674 5672 5668 5664 5659 5653 5646 5639 5632 5625 5617 5610 5603 5597 5592 5588 5584 5580 5577 5573